Volver al catálogo

TITAN 4B CENTAUR R/B

ActivoGEO
NORAD 27938·ROCKET BODY·🇺🇸 United States

Lanzado Sep 9, 2003 desde Cape Canaveral Space Force Station

Loading…

TLE

ActualizadoSource: Space-Track

Época: Sep 13, 2026, 23:38 UTC

1 27938U 03041B   26256.98477315 -.00000006  00000-0  00000+0 0  9998
2 27938  15.7974  36.2945 0033799 118.9430 241.4212  1.00859807 25843

Sigue TITAN 4B CENTAUR R/B en tiempo real con AllMySat

Download on the App Store